TimePST,TemperatureF,Dew PointF,Humidity,Sea Level PressureIn,VisibilityMPH,Wind Direction,Wind SpeedMPH,Gust SpeedMPH,PrecipitationIn,Events,Conditions,WindDirDegrees,DateUTC
12:53 AM,35.1,30.0,82,30.23,10.0,Calm,Calm,-,N/A,,Clear,0,2013-01-20 08:53:00
1:53 AM,35.1,28.9,78,30.24,10.0,Calm,Calm,-,N/A,,Clear,0,2013-01-20 09:53:00
2:53 AM,33.1,28.0,82,30.24,10.0,Calm,Calm,-,N/A,,Clear,0,2013-01-20 10:53:00
3:53 AM,32.0,28.0,85,30.24,10.0,Calm,Calm,-,N/A,,Clear,0,2013-01-20 11:53:00
4:53 AM,30.0,27.0,88,30.23,10.0,Calm,Calm,-,N/A,,Clear,0,2013-01-20 12:53:00
5:53 AM,30.9,27.0,85,30.23,10.0,Calm,Calm,-,N/A,,Clear,0,2013-01-20 13:53:00
6:53 AM,30.9,27.0,85,30.24,10.0,Calm,Calm,-,N/A,,Clear,0,2013-01-20 14:53:00
7:53 AM,30.0,27.0,88,30.24,9.0,Calm,Calm,-,N/A,,Clear,0,2013-01-20 15:53:00
8:53 AM,37.0,32.0,82,30.25,9.0,Calm,Calm,-,N/A,,Clear,0,2013-01-20 16:53:00
10:53 AM,51.1,37.0,59,30.24,10.0,Calm,Calm,-,N/A,,Clear,0,2013-01-20 18:53:00
11:53 AM,57.9,33.1,39,30.20,10.0,Calm,Calm,-,N/A,,Clear,0,2013-01-20 19:53:00
12:53 PM,61.0,27.0,27,30.17,10.0,ENE,12.7,-,N/A,,Clear,60,2013-01-20 20:53:00
1:53 PM,61.0,30.0,31,30.15,10.0,ENE,11.5,-,N/A,,Clear,60,2013-01-20 21:53:00
2:53 PM,60.1,34.0,38,30.14,10.0,ENE,12.7,-,N/A,,Clear,60,2013-01-20 22:53:00
3:53 PM,59.0,36.0,42,30.15,10.0,ENE,9.2,-,N/A,,Clear,70,2013-01-20 23:53:00
4:53 PM,55.0,36.0,49,30.15,10.0,East,8.1,-,N/A,,Clear,80,2013-01-21 00:53:00
5:53 PM,53.1,34.0,48,30.16,10.0,NE,4.6,-,N/A,,Clear,50,2013-01-21 01:53:00
6:53 PM,48.0,34.0,58,30.18,10.0,Calm,Calm,-,N/A,,Clear,0,2013-01-21 02:53:00
7:53 PM,43.0,32.0,65,30.19,10.0,East,3.5,-,N/A,,Clear,80,2013-01-21 03:53:00
8:53 PM,41.0,32.0,70,30.19,10.0,Calm,Calm,-,N/A,,Clear,0,2013-01-21 04:53:00
9:53 PM,39.9,30.9,70,30.19,10.0,Calm,Calm,-,N/A,,Clear,0,2013-01-21 05:53:00
10:53 PM,37.9,30.0,73,30.20,10.0,Calm,Calm,-,N/A,,Clear,0,2013-01-21 06:53:00
11:53 PM,36.0,30.9,82,30.19,8.0,Calm,Calm,-,N/A,,Clear,0,2013-01-21 07:53:00